Location: ????
(55.5675°N, 37.6272°E)
Time: 11:39:43
(UTC+00:00)

Meteor 2-1 Rocket - Pass Details

Date: 14 April 2026
Orbit: 824 x 910 km, 81.3° (Epoch: 10 May)

Event Time Altitude Azimuth Distance (km) Brightness Sun altitude
Exits shadow 20:53:53 51° 130° (SE) 1,122 4.5 -24.4°
Maximum altitude 20:54:46 56° 96° (E) 1,060 4.5 -24.4°
Drops below altitude 10° 21:00:27 10° 20° (NNE) 2,559 7.5 -24.5°
Sets 21:02:55 0° 17° (NNE) 3,489 8.5 -24.5°
